DLH513 LGAV-EDDF

Flight info

Callsign DLH513
Flight time N/A
Altitude 38000
Route KOR UL53 IXONI DCT YNN UL611 TUMBO DCT OVVER DCT RODON DCT VAKSU/N0476F400 DCT MONFA DCT SOTOV DCT NIKWU Q163 OLASO/N0485F320 Q163 HAFUN/N0432F240 Q163 ETASA T163 SPESA SPESA4B
Aircraft A346/H-SDE2E3FGHIJ3J4J5M1RWXY/LB1D1

Departure

Time 2026-05-07 15:13
Airport Athens Eleftherios Venizelos International Airport (LGAV)

Arrival

Time N/A
Airport Frankfurt Main Airport (EDDF)
Time Latitude Longitude Altitude Speed Heading
2026-05-07 14:45 37.92883 23.94177 310 ft 0 kts 217°
2026-05-07 14:49 37.92761 23.93804 312 ft 0 kts 217°
2026-05-07 14:50 37.93365 23.94626 309 ft 0 kts 307°
2026-05-07 14:59 37.93352 23.94648 310 ft 4 kts 307°
2026-05-07 14:59 37.93340 23.94666 311 ft 4 kts 320°
2026-05-07 15:00 37.93323 23.94677 308 ft 4 kts 356°
2026-05-07 15:00 37.93302 23.94672 312 ft 4 kts 26°
2026-05-07 15:00 37.93288 23.94662 310 ft 0 kts 37°
2026-05-07 15:05 37.93291 23.94665 309 ft 2 kts 37°
2026-05-07 15:05 37.93314 23.94686 311 ft 6 kts 37°
2026-05-07 15:06 37.93358 23.94729 312 ft 10 kts 37°
2026-05-07 15:06 37.93425 23.94792 312 ft 14 kts 37°
2026-05-07 15:06 37.93512 23.94875 312 ft 18 kts 37°
2026-05-07 15:06 37.93619 23.94978 310 ft 21 kts 37°
2026-05-07 15:07 37.93742 23.95096 312 ft 23 kts 37°
2026-05-07 15:07 37.93846 23.95206 311 ft 17 kts 53°
2026-05-07 15:07 37.93903 23.95358 311 ft 20 kts 60°
2026-05-07 15:07 37.94013 23.95482 310 ft 22 kts 37°
2026-05-07 15:08 37.94144 23.95607 310 ft 25 kts 37°
2026-05-07 15:08 37.94283 23.95741 310 ft 21 kts 37°
2026-05-07 15:08 37.94363 23.95827 311 ft 11 kts 69°
2026-05-07 15:08 37.94356 23.95931 309 ft 13 kts 65°
2026-05-07 15:09 37.94423 23.96015 309 ft 15 kts 37°
2026-05-07 15:09 37.94515 23.96103 310 ft 18 kts 37°
2026-05-07 15:09 37.94622 23.96204 310 ft 20 kts 37°
2026-05-07 15:09 37.94742 23.96317 310 ft 23 kts 37°
2026-05-07 15:10 37.94873 23.96441 312 ft 24 kts 37°
2026-05-07 15:10 37.95014 23.96574 312 ft 26 kts 37°
2026-05-07 15:10 37.95163 23.96716 313 ft 28 kts 37°
2026-05-07 15:10 37.95296 23.96842 315 ft 19 kts 37°
2026-05-07 15:11 37.95374 23.96922 312 ft 9 kts 52°
2026-05-07 15:11 37.95371 23.96991 314 ft 8 kts 128°
2026-05-07 15:11 37.95320 23.97020 317 ft 8 kts 166°
2026-05-07 15:11 37.95273 23.97035 319 ft 7 kts 166°
2026-05-07 15:12 37.95223 23.97042 319 ft 8 kts 192°
2026-05-07 15:12 37.95167 23.96999 320 ft 11 kts 215°
2026-05-07 15:12 37.95028 23.96867 319 ft 55 kts 217°
2026-05-07 15:12 37.94535 23.96397 303 ft 120 kts 217°
2026-05-07 15:13 37.93715 23.95619 295 ft 172 kts 217°
2026-05-07 15:13 37.92696 23.94651 752 ft 184 kts 217°
2026-05-07 15:13 37.91622 23.93736 1603 ft 182 kts 208°
2026-05-07 15:13 37.90476 23.93056 2334 ft 183 kts 202°
2026-05-07 15:14 37.89255 23.92416 2751 ft 198 kts 204°
2026-05-07 15:14 37.87949 23.91655 3136 ft 214 kts 206°
2026-05-07 15:14 37.86547 23.90763 3518 ft 236 kts 207°
2026-05-07 15:14 37.85057 23.89764 4106 ft 246 kts 208°
2026-05-07 15:15 37.83547 23.88724 4980 ft 248 kts 209°
2026-05-07 15:15 37.82035 23.87633 5805 ft 253 kts 216°
2026-05-07 15:15 37.80890 23.85902 6327 ft 268 kts 250°
2026-05-07 15:15 37.80735 23.83550 6979 ft 276 kts 284°
2026-05-07 15:16 37.81342 23.81254 7937 ft 275 kts 289°
2026-05-07 15:16 37.81972 23.78953 8885 ft 277 kts 288°
2026-05-07 15:16 37.82574 23.76612 9777 ft 281 kts 287°
2026-05-07 15:16 37.83155 23.74231 10642 ft 286 kts 287°
2026-05-07 15:17 37.83741 23.71753 11229 ft 302 kts 286°
2026-05-07 15:17 37.84347 23.69129 11726 ft 320 kts 286°
2026-05-07 15:17 37.84981 23.66342 12198 ft 338 kts 285°
2026-05-07 15:17 37.85649 23.63383 12651 ft 357 kts 285°
2026-05-07 15:18 37.86344 23.60289 13162 ft 372 kts 285°
2026-05-07 15:18 37.87055 23.57115 14036 ft 375 kts 285°
2026-05-07 15:18 37.87769 23.53916 14938 ft 376 kts 285°
2026-05-07 15:18 37.88492 23.50671 15812 ft 379 kts 285°
2026-05-07 15:19 37.89199 23.47488 16633 ft 381 kts 285°
2026-05-07 15:19 37.89930 23.44192 17452 ft 385 kts 285°
2026-05-07 15:19 37.90660 23.40893 18251 ft 388 kts 285°
2026-05-07 15:19 37.91387 23.37581 18968 ft 391 kts 285°
2026-05-07 15:20 37.92120 23.34244 19646 ft 395 kts 285°
2026-05-07 15:20 37.92610 23.32010 20080 ft 398 kts 285°
2026-05-07 15:20 37.93355 23.28616 20719 ft 402 kts 285°
2026-05-07 15:20 37.94110 23.25179 21364 ft 406 kts 285°
2026-05-07 15:21 37.94872 23.21708 22020 ft 410 kts 285°
2026-05-07 15:21 37.95640 23.18206 22653 ft 414 kts 285°
2026-05-07 15:21 37.96415 23.14666 23278 ft 418 kts 285°
2026-05-07 15:21 37.97198 23.11087 23852 ft 423 kts 285°
2026-05-07 15:22 37.97985 23.07483 24394 ft 426 kts 285°
2026-05-07 15:22 37.98777 23.03855 24991 ft 427 kts 285°
2026-05-07 15:22 37.99570 23.00217 25596 ft 428 kts 285°
2026-05-07 15:22 38.00372 22.96525 26197 ft 430 kts 285°
2026-05-07 15:23 38.01168 22.92855 26753 ft 431 kts 285°
2026-05-07 15:23 38.01966 22.89170 27323 ft 433 kts 285°
2026-05-07 15:23 38.02762 22.85478 27900 ft 435 kts 285°